Location: Stara Lesna
(49.1528°N, 20.2911°E)
Time: 03:41:55
(UTC+02:00)

ADEOS II - Pass Details

Date: 13 July 2020
Orbit: 799 x 801 km, 98.5° (Epoch: 11 August)

Event Time Altitude Azimuth Distance (km) Brightness Sun altitude
Rises 02:03:05 0° 24° (NNE) 3,322 7.1 -16.9°
Reaches altitude 10° 02:05:51 10° 38° (NE) 2,386 5.7 -16.8°
Maximum altitude 02:10:08 25° 92° (E) 1,581 3.8 -16.5°
Drops below altitude 10° 02:14:24 10° 147° (SSE) 2,371 4.2 -16.3°
Enters shadow 02:14:37 - 148° (SSE) 2,439 4.3 -16.3°
